Time,TemperatureF,DewpointF,PressureIn,WindDirection,WindDirectionDegrees,WindSpeedMPH,WindSpeedGustMPH,Humidity,HourlyPrecipIn,Conditions,Clouds,dailyrainin,SoftwareType,DateUTC
2013-09-21 00:11:00,52.0,-99.9,-100.00,North,-999,-999.0,-999.0,-999,0.00,,,0.68,,2013-09-21 07:11:00,
2013-09-21 00:22:00,52.0,-99.9,-100.00,North,-999,-999.0,-999.0,-999,0.00,,,0.68,,2013-09-21 07:22:00,
2013-09-21 00:30:00,53.0,-99.9,-100.00,North,-999,-999.0,-999.0,-999,0.00,,,0.68,,2013-09-21 07:30:00,
2013-09-21 01:13:00,53.0,-99.9,-100.00,North,-999,-999.0,-999.0,-999,0.00,,,0.68,,2013-09-21 08:13:00,
2013-09-21 01:22:00,53.0,-99.9,-100.00,North,-999,-999.0,-999.0,-999,0.00,,,0.68,,2013-09-21 08:22:00,
2013-09-21 01:30:00,53.0,-99.9,-100.00,North,-999,-999.0,-999.0,-999,0.00,,,0.68,,2013-09-21 08:30:00,
2013-09-21 02:11:00,53.0,-99.9,-100.00,North,-999,-999.0,-999.0,-999,0.00,,,0.68,,2013-09-21 09:11:00,
2013-09-21 02:22:00,53.0,-99.9,-100.00,North,-999,-999.0,-999.0,-999,0.00,,,0.68,,2013-09-21 09:22:00,
2013-09-21 02:30:00,53.0,-99.9,-100.00,North,-999,-999.0,-999.0,-999,0.00,,,0.68,,2013-09-21 09:30:00,
2013-09-21 03:12:00,53.0,-99.9,-100.00,North,-999,-999.0,-999.0,-999,0.00,,,0.68,,2013-09-21 10:12:00,
2013-09-21 03:23:00,53.0,-99.9,-100.00,North,-999,-999.0,-999.0,-999,0.00,,,0.68,,2013-09-21 10:23:00,
2013-09-21 03:30:00,53.0,-99.9,-100.00,North,-999,-999.0,-999.0,-999,0.01,,,0.69,,2013-09-21 10:30:00,
2013-09-21 04:12:00,53.0,-99.9,-100.00,North,-999,-999.0,-999.0,-999,0.01,,,0.69,,2013-09-21 11:12:00,
2013-09-21 04:23:00,53.0,-99.9,-100.00,North,-999,-999.0,-999.0,-999,0.01,,,0.69,,2013-09-21 11:23:00,
2013-09-21 04:30:00,53.0,-99.9,-100.00,North,-999,-999.0,-999.0,-999,0.00,,,0.69,,2013-09-21 11:30:00,
2013-09-21 05:12:00,53.0,-99.9,-100.00,North,-999,-999.0,-999.0,-999,0.00,,,0.69,,2013-09-21 12:12:00,
2013-09-21 05:22:00,53.0,-99.9,-100.00,North,-999,-999.0,-999.0,-999,0.00,,,0.69,,2013-09-21 12:22:00,
2013-09-21 05:30:00,53.0,-99.9,-100.00,North,-999,-999.0,-999.0,-999,0.00,,,0.69,,2013-09-21 12:30:00,
2013-09-21 06:11:00,53.0,-99.9,-100.00,North,-999,-999.0,-999.0,-999,0.00,,,0.69,,2013-09-21 13:11:00,
2013-09-21 06:22:00,53.0,-99.9,-100.00,North,-999,-999.0,-999.0,-999,0.00,,,0.69,,2013-09-21 13:22:00,
2013-09-21 06:30:00,53.0,-99.9,-100.00,North,-999,-999.0,-999.0,-999,0.00,,,0.69,,2013-09-21 13:30:00,
2013-09-21 07:11:00,53.0,-99.9,-100.00,North,-999,-999.0,-999.0,-999,0.00,,,0.69,,2013-09-21 14:11:00,
2013-09-21 07:22:00,53.0,-99.9,-100.00,North,-999,-999.0,-999.0,-999,0.00,,,0.69,,2013-09-21 14:22:00,
2013-09-21 07:30:00,54.0,-99.9,-100.00,North,-999,-999.0,-999.0,-999,0.00,,,0.69,,2013-09-21 14:30:00,
2013-09-21 08:12:00,54.0,-99.9,-100.00,North,-999,-999.0,-999.0,-999,0.00,,,0.69,,2013-09-21 15:12:00,
2013-09-21 08:22:00,54.0,-99.9,-100.00,North,-999,-999.0,-999.0,-999,0.00,,,0.69,,2013-09-21 15:22:00,
2013-09-21 08:30:00,55.0,-99.9,-100.00,North,-999,-999.0,-999.0,-999,0.00,,,0.69,,2013-09-21 15:30:00,
2013-09-21 09:14:00,55.0,-99.9,-100.00,North,-999,-999.0,-999.0,-999,0.00,,,0.69,,2013-09-21 16:14:00,
2013-09-21 09:24:00,55.0,-99.9,-100.00,North,-999,-999.0,-999.0,-999,0.00,,,0.69,,2013-09-21 16:24:00,
2013-09-21 09:30:00,58.0,-99.9,-100.00,North,-999,-999.0,-999.0,-999,0.00,,,0.69,,2013-09-21 16:30:00,
2013-09-21 10:12:00,58.0,-99.9,-100.00,North,-999,-999.0,-999.0,-999,0.00,,,0.69,,2013-09-21 17:12:00,
2013-09-21 10:23:00,58.0,-99.9,-100.00,North,-999,-999.0,-999.0,-999,0.00,,,0.69,,2013-09-21 17:23:00,
2013-09-21 10:30:00,59.0,-99.9,-100.00,North,-999,-999.0,-999.0,-999,0.00,,,0.69,,2013-09-21 17:30:00,
2013-09-21 11:13:00,59.0,-99.9,-100.00,North,-999,-999.0,-999.0,-999,0.00,,,0.69,,2013-09-21 18:13:00,
2013-09-21 11:22:00,59.0,-99.9,-100.00,North,-999,-999.0,-999.0,-999,0.00,,,0.69,,2013-09-21 18:22:00,
2013-09-21 11:30:00,63.0,-99.9,-100.00,North,-999,-999.0,-999.0,-999,0.00,,,0.69,,2013-09-21 18:30:00,
2013-09-21 12:12:00,63.0,-99.9,-100.00,North,-999,-999.0,-999.0,-999,0.00,,,0.69,,2013-09-21 19:12:00,
2013-09-21 12:22:00,63.0,-99.9,-100.00,North,-999,-999.0,-999.0,-999,0.00,,,0.69,,2013-09-21 19:22:00,
2013-09-21 12:30:00,68.0,-99.9,-100.00,North,-999,-999.0,-999.0,-999,0.01,,,0.70,,2013-09-21 19:30:00,
2013-09-21 13:12:00,68.0,-99.9,-100.00,North,-999,-999.0,-999.0,-999,0.01,,,0.70,,2013-09-21 20:12:00,
2013-09-21 13:22:00,68.0,-99.9,-100.00,North,-999,-999.0,-999.0,-999,0.01,,,0.70,,2013-09-21 20:22:00,
2013-09-21 13:30:00,64.0,-99.9,-100.00,North,-999,-999.0,-999.0,-999,0.00,,,0.70,,2013-09-21 20:30:00,
2013-09-21 14:12:00,64.0,-99.9,-100.00,North,-999,-999.0,-999.0,-999,0.00,,,0.70,,2013-09-21 21:12:00,
2013-09-21 14:22:00,64.0,-99.9,-100.00,North,-999,-999.0,-999.0,-999,0.00,,,0.70,,2013-09-21 21:22:00,
2013-09-21 14:30:00,66.0,-99.9,-100.00,North,-999,-999.0,-999.0,-999,0.00,,,0.69,,2013-09-21 21:30:00,
2013-09-21 15:14:00,66.0,-99.9,-100.00,North,-999,-999.0,-999.0,-999,0.00,,,0.69,,2013-09-21 22:14:00,
2013-09-21 15:24:00,66.0,-99.9,-100.00,North,-999,-999.0,-999.0,-999,0.00,,,0.69,,2013-09-21 22:24:00,
2013-09-21 16:30:00,65.0,-99.9,-100.00,North,-999,-999.0,-999.0,-999,-99.99,,,0.55,,2013-09-21 23:30:00,
2013-09-21 17:12:00,65.0,-99.9,-100.00,North,-999,-999.0,-999.0,-999,-99.99,,,0.55,,2013-09-22 00:12:00,
2013-09-21 17:23:00,65.0,-99.9,-100.00,North,-999,-999.0,-999.0,-999,-99.99,,,0.55,,2013-09-22 00:23:00,
2013-09-21 17:30:00,62.0,-99.9,-100.00,North,-999,-999.0,-999.0,-999,0.00,,,0.54,,2013-09-22 00:30:00,
2013-09-21 18:12:00,62.0,-99.9,-100.00,North,-999,-999.0,-999.0,-999,0.00,,,0.54,,2013-09-22 01:12:00,
2013-09-21 18:22:00,62.0,-99.9,-100.00,North,-999,-999.0,-999.0,-999,0.00,,,0.54,,2013-09-22 01:22:00,
2013-09-21 18:30:00,59.0,-99.9,-100.00,North,-999,-999.0,-999.0,-999,0.00,,,0.53,,2013-09-22 01:30:00,
2013-09-21 19:12:00,59.0,-99.9,-100.00,North,-999,-999.0,-999.0,-999,0.00,,,0.53,,2013-09-22 02:12:00,
2013-09-21 19:22:00,59.0,-99.9,-100.00,North,-999,-999.0,-999.0,-999,0.00,,,0.53,,2013-09-22 02:22:00,
2013-09-21 19:30:00,55.0,-99.9,-100.00,North,-999,-999.0,-999.0,-999,0.00,,,0.52,,2013-09-22 02:30:00,
2013-09-21 20:12:00,55.0,-99.9,-100.00,North,-999,-999.0,-999.0,-999,0.00,,,0.52,,2013-09-22 03:12:00,
2013-09-21 20:22:00,55.0,-99.9,-100.00,North,-999,-999.0,-999.0,-999,0.00,,,0.52,,2013-09-22 03:22:00,
2013-09-21 20:30:00,52.0,-99.9,-100.00,North,-999,-999.0,-999.0,-999,0.00,,,0.11,,2013-09-22 03:30:00,
2013-09-21 21:15:00,52.0,-99.9,-100.00,North,-999,-999.0,-999.0,-999,0.00,,,0.11,,2013-09-22 04:15:00,
2013-09-21 21:24:00,52.0,-99.9,-100.00,North,-999,-999.0,-999.0,-999,0.00,,,0.11,,2013-09-22 04:24:00,
2013-09-21 21:30:00,50.0,-99.9,-100.00,North,-999,-999.0,-999.0,-999,0.00,,,0.03,,2013-09-22 04:30:00,
2013-09-21 22:13:00,50.0,-99.9,-100.00,North,-999,-999.0,-999.0,-999,0.00,,,0.03,,2013-09-22 05:13:00,
2013-09-21 22:23:00,50.0,-99.9,-100.00,North,-999,-999.0,-999.0,-999,0.00,,,0.03,,2013-09-22 05:23:00,
2013-09-21 22:30:00,50.0,-99.9,-100.00,North,-999,-999.0,-999.0,-999,0.00,,,0.02,,2013-09-22 05:30:00,
2013-09-21 23:12:00,50.0,-99.9,-100.00,North,-999,-999.0,-999.0,-999,0.00,,,0.02,,2013-09-22 06:12:00,
2013-09-21 23:22:00,50.0,-99.9,-100.00,North,-999,-999.0,-999.0,-999,0.00,,,0.02,,2013-09-22 06:22:00,
2013-09-21 23:30:00,51.0,-99.9,-100.00,North,-999,-999.0,-999.0,-999,0.00,,,0.02,,2013-09-22 06:30:00,